QPF
0.00 0.00 0.00 0.00 0.01 0.01 0.01 0.01 0.01 0.01 0.01 0.00 0.00 0.01 0.02 0.01 0.02 0.01 0.01 0.01 0.02 0.02 0.02 0.01 0.01 0.01 0.01 0.01 0.01 0.01 0.01 0.01 0.01 0.01 0.01 0.01 0.01 0.01 0.01 0.01 0.02 0.01 0.02
0.00 0.00 0.00 0.00 0.01 0.01 0.01 0.01 0.01 0.01 0.01 0.00 0.00 0.00 0.01 0.01 0.02 0.02 0.01 0.01 0.02 0.02 0.02 0.02 0.02 0.02 0.01 0.01 0.01 0.01 0.00 0.00 0.00 0.00 0.00 0.00 0.00 0.01 0.01 0.01 0.01 0.02 0.02
0.00 0.00 0.00 0.00 0.01 0.01 0.01 0.01 0.01 0.02 0.02 0.01 0.01 0.01 0.01 0.02 0.02 0.03 0.03 0.02 0.02 0.02 0.02 0.02 0.03 0.04 0.03 0.02 0.01 0.01 0.00 0.00 0.00 0.00 0.00 0.00 0.01 0.01 0.01 0.01 0.02 0.02 0.02
0.00 0.00 0.00 0.00 0.01 0.01 0.01 0.01 0.01 0.01 0.02 0.02 0.02 0.02 0.02 0.03 0.03 0.03 0.04 0.03 0.02 0.02 0.02 0.02 0.03 0.03 0.03 0.02 0.01 0.00 0.00 0.00 0.00 0.00 0.01 0.01 0.01 0.01 0.01 0.01 0.01 0.01 0.02
0.00 0.00 0.00 0.01 0.01 0.01 0.01 0.02 0.02 0.02 0.02 0.02 0.02 0.02 0.03 0.03 0.03 0.03 0.03 0.04 0.04 0.03 0.02 0.02 0.01 0.02 0.03 0.03 0.01 0.01 0.00 0.00 0.00 0.01 0.01 0.01 0.02 0.02 0.01 0.01 0.01 0.01 0.01
0.00 0.00 0.00 0.01 0.01 0.01 0.01 0.02 0.02 0.02 0.02 0.02 0.03 0.02 0.02 0.02 0.02 0.02 0.02 0.03 0.02 0.03 0.03 0.02 0.01 0.02 0.02 0.02 0.01 0.01 0.01 0.01 0.01 0.01 0.01 0.01 0.02 0.02 0.01 0.01 0.00 0.01 0.00
0.00 0.00 0.00 0.01 0.01 0.01 0.02 0.02 0.02 0.03 0.04 0.03 0.03 0.01 0.01 0.01 0.03 0.03 0.03 0.03 0.02 0.02 0.03 0.03 0.02 0.01 0.01 0.02 0.01 0.01 0.01 0.01 0.01 0.01 0.01 0.01 0.02 0.02 0.01 0.01 0.01 0.01 0.01
0.00 0.00 0.01 0.01 0.01 0.02 0.02 0.03 0.03 0.03 0.03 0.03 0.02 0.01 0.01 0.01 0.02 0.02 0.03 0.03 0.02 0.02 0.03 0.03 0.02 0.01 0.01 0.02 0.02 0.01 0.01 0.01 0.01 0.02 0.01 0.01 0.01 0.01 0.01 0.01 0.01 0.01 0.01
0.00 0.00 0.01 0.01 0.02 0.03 0.02 0.02 0.02 0.02 0.03 0.03 0.02 0.01 0.01 0.01 0.01 0.02 0.02 0.02 0.02 0.03 0.03 0.03 0.03 0.01 0.01 0.01 0.01 0.01 0.01 0.01 0.01 0.02 0.01 0.01 0.01 0.01 0.01 0.01 0.01 0.01 0.01
0.00 0.01 0.01 0.02 0.01 0.02 0.03 0.03 0.02 0.03 0.03 0.03 0.02 0.01 0.01 0.01 0.01 0.01 0.02 0.02 0.03 0.03 0.03 0.03 0.03 0.03 0.01 0.01 0.01 0.01 0.01 0.01 0.01 0.02 0.01 0.01 0.01 0.01 0.01 0.01 0.01 0.01 0.02
0.01 0.02 0.02 0.02 0.01 0.01 0.02 0.02 0.03 0.03 0.03 0.04 0.03 0.02 0.01 0.01 0.01 0.01 0.01 0.01 0.02 0.03 0.04 0.03 0.03 0.03 0.02 0.01 0.01 0.01 0.00 0.01 0.02 0.02 0.01 0.01 0.02 0.02 0.01 0.01 0.01 0.02 0.02
0.01 0.01 0.02 0.03 0.02 0.01 0.01 0.02 0.03 0.04 0.04 0.04 0.02 0.02 0.01 0.01 0.01 0.01 0.02 0.02 0.02 0.03 0.04 0.04 0.04 0.03 0.03 0.01 0.00 0.00 0.00 0.01 0.01 0.01 0.02 0.02 0.03 0.03 0.02 0.01 0.01 0.01 0.02
0.01 0.02 0.02 0.03 0.03 0.03 0.03 0.03 0.03 0.04 0.06 0.06 0.04 0.02 0.01 0.01 0.01 0.01 0.02 0.03 0.03 0.03 0.04 0.04 0.04 0.04 0.03 0.01 0.00 0.00 0.00 0.00 0.01 0.01 0.02 0.02 0.02 0.03 0.04 0.03 0.02 0.02 0.01
0.01 0.02 0.03 0.04 0.05 0.04 0.03 0.03 0.03 0.02 0.05 0.08 0.07 0.06 0.03 0.01 0.01 0.01 0.01 0.03 0.03 0.03 0.04 0.04 0.04 0.03 0.03 0.02 0.01 0.00 0.00 0.00 0.01 0.01 0.01 0.02 0.02 0.02 0.03 0.03 0.03 0.02 0.01
0.01 0.02 0.03 0.05 0.06 0.05 0.04 0.02 0.02 0.02 0.03 0.09 0.12 0.10 0.06 0.02 0.01 0.01 0.01 0.03 0.03 0.02 0.02 0.04 0.04 0.03 0.03 0.03 0.02 0.01 0.00 0.01 0.01 0.00 0.00 0.01 0.01 0.01 0.02 0.02 0.02 0.02 0.02
0.01 0.02 0.03 0.05 0.07 0.06 0.04 0.03 0.02 0.02 0.02 0.05 0.09 0.11 0.10 0.05 0.01 0.01 0.02 0.03 0.03 0.03 0.02 0.02 0.03 0.04 0.04 0.04 0.03 0.02 0.02 0.01 0.01 0.01 0.00 0.00 0.00 0.01 0.01 0.02 0.02 0.02 0.02
0.01 0.02 0.02 0.04 0.07 0.07 0.06 0.04 0.02 0.02 0.02 0.02 0.04 0.07 0.08 0.06 0.03 0.02 0.03 0.03 0.04 0.03 0.02 0.02 0.03 0.04 0.04 0.04 0.03 0.03 0.02 0.02 0.01 0.00 0.00 0.00 0.00 0.00 0.01 0.01 0.02 0.02 0.02
0.01 0.02 0.02 0.03 0.05 0.07 0.07 0.05 0.04 0.02 0.02 0.02 0.03 0.04 0.05 0.04 0.03 0.04 0.06 0.04 0.04 0.05 0.03 0.02 0.02 0.03 0.04 0.04 0.03 0.02 0.02 0.02 0.01 0.00 0.00 0.00 0.01 0.01 0.00 0.01 0.01 0.01 0.01
0.02 0.02 0.02 0.02 0.03 0.05 0.07 0.06 0.05 0.05 0.04 0.02 0.03 0.03 0.04 0.04 0.03 0.03 0.06 0.05 0.04 0.07 0.06 0.04 0.03 0.03 0.04 0.04 0.03 0.03 0.02 0.02 0.01 0.01 0.01 0.01 0.01 0.01 0.00 0.00 0.01 0.01 0.01
0.02 0.02 0.02 0.02 0.03 0.05 0.06 0.07 0.06 0.06 0.05 0.03 0.03 0.03 0.02 0.03 0.03 0.03 0.04 0.05 0.04 0.06 0.07 0.05 0.04 0.04 0.04 0.04 0.04 0.04 0.03 0.02 0.02 0.01 0.01 0.01 0.01 0.01 0.00 0.00 0.01 0.01 0.01
0.02 0.02 0.02 0.02 0.03 0.06 0.08 0.07 0.06 0.05 0.05 0.03 0.03 0.03 0.03 0.03 0.02 0.02 0.04 0.05 0.05 0.05 0.06 0.05 0.05 0.04 0.04 0.04 0.05 0.06 0.06 0.05 0.04 0.03 0.02 0.02 0.01 0.01 0.01 0.01 0.01 0.00 0.01
0.02 0.02 0.03 0.03 0.03 0.05 0.07 0.09 0.07 0.06 0.05 0.04 0.03 0.03 0.03 0.03 0.02 0.02 0.02 0.05 0.06 0.05 0.06 0.06 0.05 0.04 0.03 0.03 0.03 0.05 0.06 0.08 0.08 0.06 0.05 0.03 0.03 0.02 0.02 0.02 0.01 0.01 0.01
0.02 0.02 0.03 0.05 0.04 0.05 0.07 0.09 0.09 0.08 0.06 0.04 0.03 0.02 0.03 0.03 0.02 0.02 0.02 0.02 0.05 0.06 0.06 0.06 0.05 0.03 0.02 0.03 0.03 0.03 0.05 0.06 0.07 0.07 0.06 0.05 0.04 0.04 0.04 0.03 0.02 0.01 0.01
0.02 0.02 0.03 0.05 0.07 0.06 0.07 0.07 0.06 0.07 0.07 0.05 0.03 0.02 0.02 0.02 0.03 0.02 0.02 0.03 0.02 0.04 0.05 0.05 0.04 0.03 0.02 0.03 0.03 0.03 0.04 0.04 0.05 0.06 0.06 0.06 0.05 0.04 0.04 0.04 0.03 0.02 0.01
0.01 0.02 0.02 0.03 0.06 0.09 0.08 0.06 0.04 0.05 0.05 0.05 0.03 0.03 0.02 0.02 0.02 0.03 0.03 0.03 0.04 0.04 0.04 0.04 0.03 0.04 0.03 0.03 0.03 0.03 0.04 0.04 0.04 0.04 0.05 0.05 0.05 0.04 0.04 0.03 0.03 0.02 0.01
0.01 0.01 0.02 0.02 0.02 0.07 0.11 0.06 0.04 0.04 0.03 0.04 0.04 0.04 0.04 0.02 0.02 0.03 0.04 0.04 0.05 0.05 0.05 0.05 0.04 0.05 0.04 0.04 0.03 0.03 0.03 0.03 0.03 0.03 0.03 0.04 0.04 0.04 0.03 0.03 0.03 0.03 0.02
MSLP
1010.57 1010.64 1010.77 1010.98 1011.27 1011.60 1011.96 1012.32 1012.65 1012.95 1013.23 1013.50 1013.78 1014.08 1014.41 1014.76 1015.11 1015.44 1015.72 1015.95 1016.13 1016.27 1016.40 1016.52 1016.67 1016.84 1017.02 1017.21 1017.37 1017.50 1017.60 1017.67 1017.73 1017.80 1017.90 1018.02 1018.16 1018.30 1018.42 1018.51 1018.55 1018.54 1018.52
1010.51 1010.62 1010.81 1011.07 1011.40 1011.76 1012.13 1012.47 1012.77 1013.03 1013.28 1013.53 1013.81 1014.14 1014.50 1014.89 1015.27 1015.62 1015.91 1016.15 1016.32 1016.47 1016.60 1016.75 1016.92 1017.12 1017.33 1017.52 1017.69 1017.81 1017.89 1017.95 1018.00 1018.08 1018.19 1018.34 1018.52 1018.70 1018.85 1018.95 1018.99 1018.98 1018.95
1010.40 1010.56 1010.80 1011.13 1011.52 1011.93 1012.32 1012.66 1012.94 1013.18 1013.39 1013.62 1013.90 1014.22 1014.59 1014.99 1015.38 1015.72 1016.01 1016.23 1016.40 1016.54 1016.69 1016.85 1017.06 1017.29 1017.52 1017.73 1017.91 1018.03 1018.10 1018.15 1018.20 1018.29 1018.42 1018.61 1018.82 1019.04 1019.23 1019.36 1019.42 1019.42 1019.39
1010.26 1010.47 1010.79 1011.20 1011.66 1012.12 1012.54 1012.90 1013.17 1013.39 1013.58 1013.78 1014.03 1014.34 1014.70 1015.08 1015.46 1015.78 1016.04 1016.24 1016.39 1016.53 1016.68 1016.87 1017.10 1017.36 1017.63 1017.87 1018.06 1018.18 1018.26 1018.30 1018.36 1018.45 1018.60 1018.82 1019.07 1019.32 1019.55 1019.72 1019.81 1019.83 1019.82
1010.16 1010.44 1010.83 1011.31 1011.84 1012.36 1012.82 1013.18 1013.45 1013.65 1013.82 1014.00 1014.22 1014.51 1014.84 1015.19 1015.53 1015.82 1016.05 1016.21 1016.34 1016.47 1016.63 1016.84 1017.10 1017.40 1017.70 1017.97 1018.18 1018.32 1018.40 1018.45 1018.50 1018.60 1018.76 1018.98 1019.25 1019.53 1019.79 1019.99 1020.12 1020.19 1020.20
1010.17 1010.50 1010.95 1011.50 1012.09 1012.65 1013.13 1013.51 1013.77 1013.95 1014.10 1014.25 1014.44 1014.70 1015.00 1015.31 1015.61 1015.86 1016.06 1016.20 1016.31 1016.43 1016.60 1016.83 1017.12 1017.45 1017.79 1018.09 1018.32 1018.48 1018.56 1018.61 1018.66 1018.74 1018.89 1019.11 1019.38 1019.67 1019.95 1020.18 1020.35 1020.45 1020.51
1010.33 1010.70 1011.20 1011.79 1012.41 1012.99 1013.47 1013.84 1014.09 1014.25 1014.37 1014.50 1014.67 1014.90 1015.16 1015.45 1015.71 1015.93 1016.09 1016.21 1016.31 1016.43 1016.61 1016.86 1017.17 1017.53 1017.90 1018.23 1018.48 1018.66 1018.75 1018.80 1018.83 1018.90 1019.03 1019.22 1019.47 1019.75 1020.03 1020.28 1020.48 1020.62 1020.73
1010.66 1011.05 1011.56 1012.17 1012.78 1013.35 1013.81 1014.16 1014.38 1014.52 1014.63 1014.74 1014.89 1015.09 1015.33 1015.59 1015.82 1016.01 1016.15 1016.26 1016.35 1016.47 1016.66 1016.92 1017.25 1017.64 1018.02 1018.37 1018.65 1018.83 1018.94 1018.98 1019.01 1019.06 1019.15 1019.31 1019.54 1019.79 1020.06 1020.32 1020.54 1020.72 1020.86
1011.11 1011.50 1012.01 1012.59 1013.17 1013.69 1014.11 1014.42 1014.61 1014.74 1014.83 1014.93 1015.07 1015.26 1015.49 1015.72 1015.93 1016.10 1016.22 1016.32 1016.41 1016.53 1016.72 1016.99 1017.33 1017.72 1018.12 1018.48 1018.77 1018.97 1019.08 1019.13 1019.15 1019.18 1019.26 1019.39 1019.58 1019.82 1020.07 1020.32 1020.55 1020.75 1020.93
1011.63 1012.01 1012.48 1013.00 1013.51 1013.96 1014.33 1014.59 1014.76 1014.87 1014.96 1015.07 1015.21 1015.40 1015.61 1015.82 1016.01 1016.16 1016.27 1016.35 1016.44 1016.57 1016.76 1017.03 1017.36 1017.75 1018.14 1018.50 1018.79 1018.99 1019.12 1019.18 1019.22 1019.25 1019.32 1019.45 1019.62 1019.84 1020.08 1020.32 1020.55 1020.77 1020.96
1012.14 1012.49 1012.90 1013.34 1013.76 1014.13 1014.43 1014.65 1014.81 1014.92 1015.03 1015.16 1015.31 1015.49 1015.69 1015.88 1016.05 1016.18 1016.27 1016.35 1016.43 1016.55 1016.74 1016.99 1017.31 1017.67 1018.04 1018.39 1018.67 1018.89 1019.03 1019.11 1019.17 1019.23 1019.32 1019.45 1019.63 1019.85 1020.09 1020.33 1020.56 1020.78 1020.97
1012.58 1012.87 1013.20 1013.54 1013.86 1014.16 1014.40 1014.60 1014.75 1014.89 1015.04 1015.19 1015.37 1015.55 1015.74 1015.91 1016.05 1016.15 1016.23 1016.29 1016.36 1016.48 1016.65 1016.88 1017.17 1017.50 1017.83 1018.15 1018.42 1018.63 1018.79 1018.91 1019.00 1019.10 1019.23 1019.40 1019.61 1019.85 1020.10 1020.35 1020.58 1020.79 1020.97
1012.90 1013.11 1013.34 1013.58 1013.81 1014.03 1014.23 1014.42 1014.60 1014.79 1014.98 1015.18 1015.38 1015.58 1015.76 1015.90 1016.01 1016.09 1016.14 1016.19 1016.26 1016.36 1016.51 1016.71 1016.97 1017.25 1017.54 1017.82 1018.06 1018.26 1018.43 1018.58 1018.72 1018.87 1019.06 1019.28 1019.53 1019.80 1020.08 1020.35 1020.59 1020.80 1020.97
1013.11 1013.21 1013.33 1013.45 1013.60 1013.76 1013.94 1014.15 1014.38 1014.62 1014.88 1015.13 1015.37 1015.57 1015.74 1015.87 1015.95 1016.00 1016.04 1016.08 1016.13 1016.22 1016.36 1016.54 1016.75 1016.98 1017.22 1017.45 1017.65 1017.84 1018.01 1018.17 1018.35 1018.56 1018.80 1019.07 1019.37 1019.69 1020.00 1020.30 1020.56 1020.76 1020.93
1013.23 1013.21 1013.19 1013.21 1013.27 1013.39 1013.57 1013.81 1014.09 1014.41 1014.73 1015.04 1015.31 1015.53 1015.70 1015.80 1015.87 1015.91 1015.93 1015.97 1016.03 1016.12 1016.25 1016.40 1016.58 1016.76 1016.94 1017.11 1017.27 1017.43 1017.58 1017.76 1017.96 1018.19 1018.47 1018.79 1019.13 1019.49 1019.83 1020.16 1020.43 1020.66 1020.83
1013.33 1013.15 1013.01 1012.92 1012.90 1012.99 1013.17 1013.44 1013.79 1014.17 1014.55 1014.91 1015.21 1015.44 1015.61 1015.71 1015.77 1015.81 1015.85 1015.90 1015.97 1016.08 1016.21 1016.35 1016.49 1016.63 1016.76 1016.88 1016.99 1017.10 1017.23 1017.39 1017.59 1017.83 1018.12 1018.45 1018.81 1019.19 1019.55 1019.90 1020.20 1020.45 1020.65
1013.48 1013.15 1012.86 1012.67 1012.59 1012.64 1012.82 1013.12 1013.50 1013.92 1014.35 1014.74 1015.06 1015.31 1015.47 1015.58 1015.65 1015.71 1015.77 1015.85 1015.96 1016.10 1016.24 1016.38 1016.51 1016.61 1016.70 1016.77 1016.83 1016.90 1016.99 1017.12 1017.29 1017.51 1017.78 1018.10 1018.44 1018.81 1019.18 1019.53 1019.86 1020.15 1020.39
1013.76 1013.27 1012.85 1012.56 1012.41 1012.42 1012.58 1012.88 1013.27 1013.71 1014.15 1014.54 1014.87 1015.12 1015.29 1015.41 1015.50 1015.59 1015.69 1015.82 1015.97 1016.14 1016.31 1016.46 1016.58 1016.67 1016.73 1016.77 1016.79 1016.82 1016.88 1016.96 1017.09 1017.27 1017.49 1017.76 1018.06 1018.39 1018.74 1019.09 1019.44 1019.76 1020.06
1014.22 1013.59 1013.06 1012.67 1012.45 1012.41 1012.53 1012.79 1013.14 1013.55 1013.96 1014.34 1014.64 1014.88 1015.06 1015.19 1015.31 1015.43 1015.58 1015.76 1015.96 1016.16 1016.36 1016.53 1016.66 1016.75 1016.79 1016.81 1016.82 1016.83 1016.85 1016.90 1016.98 1017.11 1017.27 1017.47 1017.72 1017.99 1018.30 1018.64 1018.99 1019.35 1019.71
1014.89 1014.15 1013.53 1013.06 1012.76 1012.65 1012.70 1012.88 1013.17 1013.50 1013.84 1014.16 1014.42 1014.63 1014.79 1014.93 1015.07 1015.23 1015.41 1015.63 1015.86 1016.09 1016.31 1016.50 1016.64 1016.74 1016.80 1016.82 1016.83 1016.84 1016.85 1016.88 1016.94 1017.02 1017.12 1017.26 1017.44 1017.65 1017.92 1018.23 1018.58 1018.97 1019.38
1015.74 1014.95 1014.26 1013.73 1013.36 1013.16 1013.11 1013.19 1013.35 1013.58 1013.81 1014.03 1014.23 1014.39 1014.52 1014.66 1014.80 1014.96 1015.16 1015.39 1015.63 1015.88 1016.10 1016.30 1016.45 1016.57 1016.64 1016.70 1016.74 1016.77 1016.81 1016.85 1016.90 1016.95 1017.02 1017.12 1017.24 1017.41 1017.63 1017.91 1018.26 1018.66 1019.10
1016.74 1015.93 1015.22 1014.65 1014.21 1013.91 1013.75 1013.69 1013.72 1013.79 1013.90 1014.00 1014.10 1014.19 1014.28 1014.38 1014.49 1014.64 1014.82 1015.02 1015.24 1015.46 1015.67 1015.86 1016.02 1016.15 1016.26 1016.36 1016.45 1016.54 1016.63 1016.71 1016.79 1016.86 1016.93 1017.02 1017.12 1017.26 1017.46 1017.72 1018.06 1018.46 1018.92
1017.82 1017.04 1016.34 1015.73 1015.24 1014.85 1014.56 1014.36 1014.23 1014.15 1014.11 1014.08 1014.08 1014.08 1014.09 1014.12 1014.18 1014.27 1014.38 1014.52 1014.68 1014.84 1015.00 1015.16 1015.31 1015.46 1015.61 1015.76 1015.92 1016.09 1016.25 1016.41 1016.55 1016.68 1016.80 1016.91 1017.03 1017.19 1017.39 1017.65 1017.98 1018.37 1018.82
1018.88 1018.17 1017.50 1016.89 1016.35 1015.87 1015.46 1015.12 1014.84 1014.61 1014.42 1014.27 1014.15 1014.04 1013.96 1013.90 1013.87 1013.85 1013.86 1013.89 1013.94 1014.01 1014.10 1014.21 1014.34 1014.50 1014.68 1014.90 1015.13 1015.39 1015.64 1015.90 1016.14 1016.35 1016.55 1016.74 1016.92 1017.13 1017.37 1017.65 1017.98 1018.37 1018.80
1019.85 1019.22 1018.60 1018.00 1017.42 1016.87 1016.36 1015.90 1015.48 1015.12 1014.80 1014.53 1014.30 1014.09 1013.90 1013.72 1013.56 1013.41 1013.27 1013.16 1013.07 1013.02 1013.02 1013.06 1013.16 1013.32 1013.54 1013.81 1014.12 1014.46 1014.82 1015.17 1015.52 1015.84 1016.15 1016.44 1016.73 1017.02 1017.33 1017.66 1018.01 1018.40 1018.81
1020.66 1020.11 1019.55 1018.96 1018.36 1017.75 1017.16 1016.60 1016.08 1015.62 1015.20 1014.83 1014.49 1014.18 1013.87 1013.56 1013.25 1012.93 1012.63 1012.35 1012.11 1011.93 1011.83 1011.80 1011.87 1012.03 1012.27 1012.58 1012.96 1013.38 1013.82 1014.27 1014.72 1015.16 1015.58 1016.00 1016.41 1016.81 1017.21 1017.62 1018.02 1018.42 1018.82
Thickness
5746 5744 5740 5739 5738 5736 5735 5733 5732 5731 5730 5730 5729 5729 5728 5728 5728 5727 5727 5726 5726 5725 5725 5724 5724 5723 5723 5723 5722 5722 5721 5721 5721 5720 5720 5720 5719 5719 5719 5718 5718 5717 5716
5747 5742 5738 5736 5735 5733 5732 5731 5729 5728 5727 5727 5726 5726 5726 5725 5725 5724 5724 5724 5723 5723 5722 5722 5721 5721 5720 5719 5719 5718 5718 5718 5718 5717 5717 5717 5716 5716 5715 5715 5715 5714 5713
5744 5739 5735 5733 5732 5730 5729 5728 5726 5725 5724 5724 5723 5723 5723 5722 5722 5721 5721 5721 5721 5720 5720 5719 5718 5718 5717 5716 5716 5715 5715 5715 5715 5715 5715 5714 5713 5713 5712 5712 5711 5711 5710
5741 5735 5732 5730 5728 5727 5726 5724 5723 5722 5721 5721 5720 5720 5719 5719 5718 5718 5718 5718 5717 5717 5717 5716 5715 5714 5714 5713 5712 5712 5712 5713 5713 5713 5712 5712 5711 5710 5709 5709 5708 5707 5706
5736 5732 5728 5726 5725 5723 5722 5721 5720 5719 5718 5718 5717 5716 5716 5715 5715 5715 5715 5714 5714 5713 5713 5713 5712 5711 5710 5710 5710 5709 5710 5710 5710 5710 5710 5709 5708 5707 5706 5705 5704 5703 5703
5731 5727 5723 5722 5721 5720 5719 5718 5717 5716 5715 5714 5714 5713 5712 5712 5712 5711 5711 5711 5710 5710 5709 5709 5708 5707 5707 5707 5707 5707 5707 5707 5707 5707 5706 5705 5704 5703 5702 5701 5700 5700 5699
5725 5722 5718 5717 5717 5716 5715 5714 5713 5712 5711 5711 5710 5710 5709 5708 5708 5708 5707 5707 5706 5706 5706 5705 5704 5704 5703 5703 5703 5703 5704 5704 5704 5704 5703 5702 5701 5700 5699 5698 5697 5696 5696
5720 5717 5713 5712 5711 5711 5710 5710 5709 5708 5707 5707 5706 5706 5705 5704 5704 5703 5703 5703 5703 5702 5702 5701 5701 5700 5700 5700 5700 5700 5701 5701 5701 5700 5699 5698 5697 5696 5695 5694 5693 5693 5692
5714 5711 5708 5707 5706 5706 5705 5705 5704 5703 5703 5702 5702 5701 5700 5700 5699 5699 5699 5699 5699 5699 5698 5698 5697 5696 5696 5696 5697 5697 5697 5698 5697 5697 5696 5694 5694 5693 5692 5691 5690 5689 5688
5707 5706 5703 5702 5701 5700 5700 5699 5699 5698 5698 5697 5697 5696 5696 5695 5695 5695 5695 5695 5695 5695 5694 5694 5693 5693 5693 5693 5693 5694 5694 5693 5693 5693 5691 5690 5690 5689 5688 5687 5686 5685 5684
5699 5699 5699 5697 5696 5695 5694 5694 5693 5693 5693 5692 5692 5691 5691 5690 5690 5690 5691 5691 5691 5691 5690 5690 5689 5689 5689 5689 5690 5690 5690 5689 5689 5688 5687 5686 5686 5685 5684 5683 5682 5681 5680
5690 5692 5693 5692 5691 5690 5689 5688 5688 5687 5687 5687 5687 5687 5686 5686 5686 5686 5686 5686 5686 5686 5686 5686 5685 5685 5685 5685 5685 5686 5686 5685 5685 5684 5683 5683 5682 5681 5680 5679 5677 5677 5676
5686 5687 5688 5688 5687 5685 5684 5683 5682 5682 5681 5682 5682 5682 5682 5681 5681 5681 5680 5681 5681 5681 5682 5682 5681 5681 5681 5681 5681 5681 5681 5681 5681 5680 5679 5678 5677 5677 5676 5675 5674 5673 5671
5681 5681 5682 5682 5681 5680 5679 5678 5678 5677 5677 5677 5677 5677 5677 5677 5676 5676 5676 5676 5676 5677 5677 5677 5677 5677 5677 5677 5677 5677 5677 5676 5676 5675 5674 5673 5673 5672 5671 5670 5669 5668 5667
5675 5676 5676 5676 5675 5674 5674 5673 5673 5672 5672 5672 5671 5672 5672 5671 5671 5671 5671 5671 5672 5672 5672 5672 5673 5673 5673 5673 5673 5672 5672 5672 5671 5670 5669 5668 5668 5667 5666 5666 5665 5664 5662
5669 5669 5670 5670 5669 5669 5668 5668 5667 5667 5666 5666 5666 5666 5666 5666 5665 5665 5665 5666 5666 5667 5667 5667 5668 5668 5668 5668 5667 5667 5667 5667 5666 5664 5663 5662 5662 5662 5661 5660 5659 5659 5658
5663 5664 5663 5663 5663 5663 5662 5662 5662 5661 5660 5660 5660 5661 5660 5660 5660 5659 5659 5660 5660 5661 5661 5662 5662 5662 5662 5662 5661 5661 5661 5661 5660 5659 5658 5657 5656 5656 5655 5655 5654 5653 5652
5657 5657 5657 5658 5657 5656 5656 5656 5655 5655 5654 5654 5654 5655 5654 5654 5654 5653 5653 5653 5654 5655 5655 5655 5656 5655 5655 5655 5654 5654 5654 5654 5654 5653 5652 5651 5650 5650 5649 5649 5648 5648 5647
5650 5650 5649 5650 5649 5649 5649 5649 5649 5648 5648 5647 5648 5648 5648 5647 5647 5647 5647 5647 5647 5648 5648 5649 5649 5649 5648 5647 5647 5646 5646 5646 5646 5646 5646 5645 5644 5644 5643 5642 5642 5641 5641
5643 5643 5642 5642 5642 5642 5641 5641 5640 5640 5640 5640 5640 5641 5641 5641 5641 5641 5641 5641 5641 5641 5641 5642 5642 5642 5641 5640 5640 5638 5637 5638 5638 5638 5638 5638 5638 5637 5636 5635 5635 5634 5634
5634 5634 5635 5634 5634 5634 5633 5632 5631 5631 5632 5632 5633 5633 5633 5633 5634 5634 5635 5634 5634 5634 5635 5635 5635 5634 5633 5633 5630 5627 5627 5628 5629 5629 5629 5630 5630 5630 5629 5628 5628 5627 5627
5627 5627 5627 5627 5627 5627 5626 5625 5625 5624 5624 5625 5625 5625 5626 5626 5627 5628 5628 5628 5628 5628 5628 5629 5629 5627 5626 5627 5624 5621 5617 5617 5618 5621 5621 5621 5621 5622 5621 5620 5620 5620 5619
5619 5619 5620 5620 5620 5620 5619 5618 5617 5616 5615 5615 5616 5617 5619 5620 5621 5621 5621 5621 5622 5622 5622 5622 5623 5622 5619 5619 5621 5619 5615 5612 5610 5611 5612 5613 5613 5613 5613 5612 5612 5612 5611
5611 5611 5612 5612 5612 5612 5612 5611 5611 5610 5608 5609 5610 5611 5612 5613 5614 5615 5615 5615 5616 5616 5616 5616 5617 5616 5615 5612 5613 5614 5614 5613 5607 5602 5602 5603 5604 5604 5604 5604 5604 5603 5602
5603 5603 5603 5604 5604 5604 5605 5605 5604 5603 5603 5603 5603 5604 5605 5606 5607 5608 5609 5609 5610 5610 5610 5611 5610 5610 5608 5608 5607 5606 5606 5605 5604 5600 5594 5593 5593 5595 5596 5596 5596 5595 5593
5593 5594 5595 5596 5596 5597 5597 5598 5598 5598 5597 5597 5597 5597 5598 5599 5600 5601 5602 5603 5603 5604 5604 5604 5604 5603 5602 5601 5601 5600 5599 5597 5595 5594 5589 5586 5584 5585 5587 5587 5587 5586 5584